Flag for Germany Weather past 2 weeks in Steinfurt, North Rhine-Westphalia, Germany

Now
48 °F

Cool.


Feels Like: 43 °F
Forecast: 42 / 47 °F
Wind: 14 mph from Southwest

Location: Rheine-Bentlage

Current Time: Mar 29, 2015 at 8:13:06 AM

Latest Report: Mar 29, 2015 at 7:20 AM


Visibility: N/A

Pressure: 29.59 "Hg

Humidity: 94%

Dew point: 46 °F

Location of SteinfurtLocation

Historic Weather in Steinfurt — Graph

°F

Steinfurt temperature yesterday

Maximum temperature yesterday: 52 °F (at 12:20 PM)
Minimum temperature yesterday: 32 °F (at 5:20 AM)
Average temperature yesterday: 44 °F

Past Weeks' High & Low Weather Summary

 TemperatureHumidityPressure
High61 °F (Mar 17, 3:20 PM)100% (Mar 17, 4:20 AM)30.42 "Hg (Mar 17, 4:20 AM)
Low28 °F (Mar 20, 5:20 AM)47% (Mar 24, 2:20 PM)29.59 "Hg (Mar 29, 6:20 AM)
Average42 °F81%30.10 "Hg
* Reported Mar 14 5:20 AM — Mar 29 6:20 AM, Steinfurt, Weather by CustomWeather, © 2015

Note: Actual official high and low records may vary slightly from our data, if they occured in-between our weather recording intervals... More about our weather records

Advertising

Steinfurt weather history for previous 24 hours

 ConditionsComfort  
Time TempWeatherWind HumidityBarometerVisibility
6:20 AM
Sun, Mar 29
50 °FCool.15 mph88%29.59 "HgN/A
5:20 AM50 °FCool.13 mph88%29.62 "HgN/A
4:20 AM52 °FCool.14 mph82%29.62 "HgN/A
3:20 AM52 °FCool.14 mph88%29.62 "HgN/A
1:20 AM52 °FCool.12 mph88%29.65 "HgN/A
12:20 AM52 °FCool.10 mph94%29.68 "HgN/A
11:20 PM
Sat, Mar 28
52 °FCool.10 mph94%29.71 "HgN/A
10:20 PM50 °FCool.9 mph100%29.71 "HgN/A
9:20 PM50 °FCool.9 mph94%29.74 "HgN/A
8:20 PM50 °FCool.9 mph94%29.77 "HgN/A
7:20 PM50 °FCool.9 mph88%29.80 "HgN/A
6:20 PM48 °FCool.9 mph94%29.83 "HgN/A
5:20 PM48 °FCool.9 mph94%29.83 "HgN/A
4:20 PM46 °FCool.8 mph93%29.86 "HgN/A
3:20 PM48 °FCool.8 mph82%29.89 "HgN/A
2:20 PM48 °FCool.7 mph76%29.92 "HgN/A
1:20 PM52 °FCool.8 mph58%29.95 "HgN/A
12:20 PM52 °FCool.10 mph58%29.98 "HgN/A
11:20 AM50 °FCool.9 mph58%30.04 "HgN/A
10:20 AM46 °FCool.7 mph66%30.07 "HgN/A
9:20 AM43 °FQuite cool.7 mph81%30.09 "HgN/A
8:20 AM39 °FChilly.5 mph87%30.12 "HgN/A
Weather by CustomWeather, © 2015

See weather overviewHow to use our weather pages